Flag for Germany Weather past 2 weeks in Ingelheim am Rhein, Rhineland-Palatinate, Germany

Now
69 °F

Partly sunny.


Feels Like: 69 °F
Forecast: 46 / 67 °F
Wind: 14 mph from Southwest

Location: Wiesbaden Airport

Current Time: May 28, 2015 at 3:02:33 PM

Latest Report: May 28, 2015 at 1:55 PM


Visibility: N/A

Pressure: 29.97 "Hg

Humidity: 47%

Dew point: 47 °F

Location of Ingelheim am RheinLocation

Historic Weather in Ingelheim am Rhein — Graph

°F

Ingelheim am Rhein temperature yesterday

Maximum temperature yesterday: 59 °F (at 3:58 PM)
Minimum temperature yesterday: 40 °F (at 4:58 AM)
Average temperature yesterday: 51 °F

Past Weeks' High & Low Weather Summary

 TemperatureHumidityPressure
High73 °F (May 15, 4:58 PM)94% (May 13, 10:59 PM)30.34 "Hg (May 13, 10:59 PM)
Low39 °F (May 28, 2:58 AM)33% (May 18, 2:58 PM)29.67 "Hg (May 19, 1:58 AM)
Average57 °F63%30.06 "Hg
* Reported May 13 12:58 PM — May 28 12:55 PM, Ingelheim am Rhein, Weather by CustomWeather, © 2015

Note: Actual official high and low records may vary slightly from our data, if they occured in-between our weather recording intervals... More about our weather records

Advertising

Ingelheim am Rhein weather history for previous 24 hours

 ConditionsComfort  
Time TempWeatherWind HumidityBarometerVisibility
12:55 PM
Thu, May 28
68 °FCloudy.15 mph46%30.00 "HgN/A
11:57 AM64 °FScattered clouds.12 mph52%30.03 "HgN/A
10:58 AM60 °FScattered clouds.6 mph59%30.05 "HgN/A
9:58 AM55 °FSunny.5 mph65%30.07 "HgN/A
8:59 AM52 °FPartly sunny.2 mph72%30.07 "HgN/A
8:58 AM52 °FPartly sunny.1 mph72%30.08 "HgN/A
7:58 AM48 °FScattered clouds.2 mph76%30.09 "HgN/A
6:58 AM46 °FOvercast.2 mph82%30.10 "HgN/A
5:58 AM43 °FPassing clouds.No wind86%30.09 "HgN/A
5:55 AM43 °FPassing clouds.No wind86%30.09 "HgN/A
4:58 AM43 °FPartly cloudy.No wind87%30.10 "HgN/A
3:58 AM43 °FOvercast.No wind87%30.12 "HgN/A
3:03 AM41 °FPassing clouds.No wind87%30.12 "HgN/A
2:58 AM39 °FLight rain. Passing clouds.No wind93%30.13 "HgN/A
1:58 AM41 °FClear.No wind87%30.14 "HgN/A
12:58 AM41 °FClear.2 mph85%30.16 "HgN/A
11:58 PM
Wed, May 27
44 °FClear.No wind80%30.16 "HgN/A
10:58 PM44 °FClear.No wind79%30.18 "HgN/A
9:58 PM52 °FSunny.No wind58%30.19 "HgN/A
8:58 PM56 °FSunny.No wind48%30.19 "HgN/A
7:58 PM59 °FSunny.5 mph48%30.20 "HgN/A
6:58 PM59 °FOvercast.6 mph45%30.21 "HgN/A
5:58 PM57 °FOvercast.5 mph48%30.22 "HgN/A
4:58 PM58 °FOvercast.3 mph47%30.23 "HgN/A
3:58 PM59 °FOvercast.2 mph45%30.24 "HgN/A
Weather by CustomWeather, © 2015

See weather overviewHow to use our weather pages